WA5KWK Weather Reports


Display with metric or nautical units.
time (UTC)temp
F
wind
direction
speed
MPH
gust
MPH
rain 1hr
in
rain 24hr
in
rain mn
in
humidity
%
barometer
mb
20260901201004 68 187 7.0 12.0 0.00 0.00 0.00 47 1015.8
20260901200504 67 234 6.0 13.0 0.00 0.00 0.00 47 1015.8
20260901200005 68 219 9.0 14.0 0.00 0.00 0.00 47 1016.0
20260901195005 68 215 7.0 15.0 0.00 0.00 0.00 48 1016.1
20260901194504 69 217 5.0 13.0 0.00 0.00 0.00 51 1016.1
20260901194005 69 183 7.0 15.0 0.00 0.00 0.00 46 1016.0
20260901193505 69 194 5.0 10.0 0.00 0.00 0.00 46 1015.9
20260901193005 69 175 10.0 17.0 0.00 0.00 0.00 45 1015.9
20260901192505 69 232 6.0 12.0 0.00 0.00 0.00 48 1016.1
20260901192004 68 207 6.0 14.0 0.00 0.00 0.00 50 1016.1
20260901191505 68 224 8.0 15.0 0.00 0.00 0.00 53 1016.0
20260901191006 67 192 6.0 15.0 0.00 0.00 0.00 53 1016.0
20260901190505 67 175 6.0 12.0 0.00 0.00 0.00 55 1016.0
20260901184505 64 177 4.0 10.0 0.00 0.00 0.00 63 1016.0
20260901183504 63 201 3.0 7.0 0.00 0.00 0.00 64 1016.3
20260901183005 62 144 4.0 9.0 0.00 0.00 0.00 65 1016.2
20260901182504 62 191 3.0 7.0 0.00 0.00 0.00 66 1016.3
20260901182004 61 189 2.0 7.0 0.00 0.00 0.00 67 1016.2
20260901181504 61 224 1.0 6.0 0.00 0.00 0.00 68 1016.3
20260901181004 61 204 4.0 8.0 0.00 0.00 0.00 68 1016.3
20260901180505 61 198 5.0 8.0 0.00 0.00 0.00 68 1016.4
20260901180005 60 194 5.0 7.0 0.00 0.00 0.00 69 1016.5
20260901175504 60 246 4.0 9.0 0.00 0.00 0.00 70 1016.4
20260901175005 60 221 6.0 12.0 0.00 0.00 0.00 70 1016.4
20260901174505 60 291 2.0 7.0 0.00 0.00 0.00 70 1016.3
20260901174007 59 210 4.0 6.0 0.00 0.00 0.00 71 1016.2
20260901173505 58 184 4.0 8.0 0.00 0.00 0.00 72 1016.2
20260901173005 58 232 3.0 8.0 0.00 0.00 0.00 72 1016.0
20260901172504 58 208 4.0 8.0 0.00 0.00 0.00 73 1016.1
20260901172004 58 181 2.0 9.0 0.00 0.00 0.00 74 1016.0
20260901171504 58 189 2.0 6.0 0.00 0.00 0.00 74 1016.0
20260901171005 57 215 2.0 6.0 0.00 0.00 0.00 74 1015.8
20260901170505 57 215 1.0 3.0 0.00 0.00 0.00 76 1015.9
20260901170004 57 216 3.0 6.0 0.00 0.00 0.00 77 1015.9
20260901165504 56 229 2.0 5.0 0.00 0.00 0.00 77 1015.8
20260901165005 57 271 2.0 3.0 0.00 0.00 0.00 77 1015.9
20260901164005 56 278 3.0 6.0 0.00 0.00 0.00 80 1015.9
20260901163504 55 198 3.0 6.0 0.00 0.00 0.00 81 1015.8
20260901163005 55 249 2.0 5.0 0.00 0.00 0.00 82 1015.7
20260901162504 54 221 2.0 6.0 0.00 0.00 0.00 83 1015.6
20260901162005 54 189 3.0 6.0 0.00 0.00 0.00 84 1015.6
20260901161504 53 238 1.0 5.0 0.00 0.00 0.00 84 1015.4
20260901161005 53 238 2.0 3.0 0.00 0.00 0.00 85 1015.4
20260901160505 52 238 3.0 5.0 0.00 0.00 0.00 86 1015.3
20260901160005 52 244 0.0 3.0 0.00 0.00 0.00 86 1015.5
20260901155504 52 244 2.0 3.0 0.00 0.00 0.00 87 1015.5
20260901155005 52 245 2.0 3.0 0.00 0.00 0.00 88 1015.5
20260901154505 51 250 2.0 3.0 0.00 0.00 0.00 88 1015.5
20260901153505 51 250 1.0 3.0 0.00 0.00 0.00 89 1015.3
20260901153004 51 254 2.0 3.0 0.00 0.00 0.00 90 1015.3
20260901152004 50 259 1.0 3.0 0.00 0.00 0.00 90 1015.0
20260901151505 50 259 1.0 3.0 0.00 0.00 0.00 90 1015.0
20260901150504 50 259 1.0 2.0 0.00 0.00 0.00 90 1014.7
20260901150004 50 259 1.0 3.0 0.00 0.00 0.00 90 1014.8
20260901145005 50 258 0.0 2.0 0.00 0.00 0.00 90 1014.6
20260901144504 50 258 1.0 2.0 0.00 0.00 0.00 90 1014.5
20260901144004 50 258 1.0 3.0 0.00 0.00 0.00 90 1014.4
20260901143505 50 258 1.0 2.0 0.00 0.00 0.00 91 1014.3
20260901143005 50 258 0.0 2.0 0.00 0.00 0.00 90 1014.3
20260901142504 50 258 0.0 2.0 0.00 0.00 0.00 91 1014.3
20260901142005 50 258 1.0 2.0 0.00 0.00 0.00 91 1014.3
20260901141504 50 258 1.0 3.0 0.00 0.00 0.00 91 1014.2
20260901140504 50 258 0.0 2.0 0.00 0.00 0.00 91 1014.1
20260901140004 50 258 0.0 1.0 0.00 0.00 0.00 91 1014.1
20260901135504 50 258 1.0 2.0 0.00 0.00 0.00 91 1014.2
20260901134504 50 258 0.0 0.0 0.00 0.00 0.00 92 1014.3
20260901134004 50 258 0.0 0.0 0.00 0.00 0.00 92 1014.4
20260901133504 50 258 0.0 2.0 0.00 0.00 0.00 92 1014.4
20260901133004 50 258 0.0 1.0 0.00 0.00 0.00 93 1014.4
20260901132504 50 258 0.0 1.0 0.00 0.00 0.00 93 1014.5
20260901132005 49 258 0.0 1.0 0.00 0.00 0.00 93 1014.4
20260901131505 49 258 0.0 1.0 0.00 0.00 0.00 93 1014.5
20260901130505 49 258 0.0 2.0 0.00 0.00 0.00 93 1014.4
20260901130004 49 258 0.0 3.0 0.00 0.00 0.00 93 1014.5
20260901125504 49 258 1.0 2.0 0.00 0.00 0.00 93 1014.4
20260901125004 49 258 2.0 6.0 0.00 0.00 0.00 93 1014.4
20260901124505 49 320 1.0 3.0 0.00 0.00 0.00 93 1014.4
20260901124005 49 258 1.0 3.0 0.00 0.00 0.00 93 1014.2
20260901123504 49 261 2.0 6.0 0.00 0.00 0.00 92 1014.0
20260901122504 49 256 1.0 6.0 0.00 0.00 0.00 92 1013.7
20260901122004 48 261 1.0 3.0 0.00 0.00 0.00 91 1013.4
20260901121504 48 271 2.0 3.0 0.00 0.00 0.00 91 1013.4
20260901121005 48 294 1.0 3.0 0.00 0.00 0.00 90 1013.4
20260901120004 49 253 2.0 7.0 0.00 0.00 0.00 89 1013.6
20260901115504 49 253 2.0 7.0 0.00 0.00 0.00 87 1013.5
20260901114504 51 261 3.0 8.0 0.00 0.00 0.00 83 1013.3
20260901113504 54 275 0.0 0.0 0.00 0.00 0.00 75 1013.1
20260901113004 55 275 0.0 0.0 0.00 0.00 0.00 74 1012.8
20260901112504 56 275 0.0 0.0 0.00 0.00 0.00 69 1012.8
20260901112004 56 275 0.0 0.0 0.00 0.00 0.00 68 1013.1
20260901111504 57 275 0.0 0.0 0.00 0.00 0.00 66 1013.0
20260901111004 57 275 0.0 0.0 0.00 0.00 0.00 64 1013.1
20260901110504 58 275 0.0 0.0 0.00 0.00 0.00 64 1013.1
20260901110005 58 275 0.0 0.0 0.00 0.00 0.00 63 1012.9
20260901105504 57 275 0.0 0.0 0.00 0.00 0.00 63 1013.1
20260901105005 57 275 0.0 0.0 0.00 0.00 0.00 63 1013.1
20260901104004 57 275 0.0 0.0 0.00 0.00 0.00 65 1013.2
20260901103505 57 275 0.0 0.0 0.00 0.00 0.00 64 1013.3
20260901103004 57 275 0.0 0.0 0.00 0.00 0.00 63 1013.3
20260901102005 58 275 0.0 0.0 0.00 0.00 0.00 62 1013.0
20260901101504 57 275 0.0 0.0 0.00 0.00 0.00 62 1013.1
20260901101004 57 275 0.0 0.0 0.00 0.00 0.00 64 1013.1
20260901100504 57 275 0.0 0.0 0.00 0.00 0.00 67 1013.0
20260901100005 57 275 0.0 0.0 0.00 0.00 0.00 69 1013.0
20260901095004 56 275 0.0 0.0 0.00 0.00 0.00 69 1013.2
20260901094505 56 275 0.0 0.0 0.00 0.00 0.00 68 1013.2
20260901094004 55 275 0.0 2.0 0.00 0.00 0.00 70 1013.2
20260901093504 55 275 1.0 2.0 0.00 0.00 0.00 72 1013.1
20260901093004 54 275 1.0 2.0 0.00 0.00 0.00 75 1013.2
20260901092504 54 275 1.0 3.0 0.00 0.00 0.00 79 1013.3
20260901092005 54 275 2.0 2.0 0.00 0.00 0.00 81 1013.3
20260901091504 53 275 2.0 2.0 0.00 0.00 0.00 83 1013.3
20260901090504 52 275 2.0 3.0 0.00 0.00 0.00 85 1013.3
20260901090004 52 275 2.0 3.0 0.00 0.00 0.00 84 1013.5
20260901084505 52 275 0.0 0.0 0.00 0.00 0.00 85 1013.6
20260901084005 52 275 0.0 0.0 0.00 0.00 0.00 84 1013.7
20260901083504 52 275 0.0 2.0 0.00 0.00 0.00 85 1013.7
20260901083005 52 275 1.0 2.0 0.00 0.00 0.00 85 1013.7
20260901082505 52 275 0.0 2.0 0.00 0.00 0.00 84 1013.7
20260901082004 52 275 2.0 3.0 0.00 0.00 0.00 84 1013.8
20260901081504 52 275 1.0 3.0 0.00 0.00 0.00 84 1013.7
20260901081004 52 275 0.0 2.0 0.00 0.00 0.00 84 1013.6
20260901080504 53 275 1.0 2.0 0.00 0.00 0.00 84 1013.6
20260901075504 53 275 1.0 2.0 0.00 0.00 0.00 83 1013.6
20260901075005 53 275 0.0 0.0 0.00 0.00 0.00 82 1013.6
20260901074504 53 275 0.0 0.0 0.00 0.00 0.00 81 1013.5
20260901074005 53 275 0.0 0.0 0.00 0.00 0.00 81 1013.5
20260901073504 54 275 0.0 0.0 0.00 0.00 0.00 81 1013.5
20260901073004 54 275 0.0 0.0 0.00 0.00 0.00 80 1013.5
20260901071504 54 275 0.0 0.0 0.00 0.00 0.00 80 1013.4
20260901071011 54 275 0.0 0.0 0.00 0.00 0.00 79 1013.4
20260901070004 55 275 0.0 0.0 0.00 0.00 0.00 80 1013.4
20260901065504 55 275 0.0 0.0 0.00 0.00 0.00 78 1013.4
20260901065004 55 275 0.0 0.0 0.00 0.00 0.00 78 1013.3
20260901064504 55 275 0.0 0.0 0.00 0.00 0.00 77 1013.3
20260901064004 56 275 0.0 0.0 0.00 0.00 0.00 76 1013.4
20260901063504 56 275 0.0 0.0 0.00 0.00 0.00 76 1013.3
20260901063004 56 275 0.0 0.0 0.00 0.00 0.00 76 1013.3
20260901062504 57 275 0.0 0.0 0.00 0.00 0.00 76 1013.2
20260901062005 57 275 0.0 0.0 0.00 0.00 0.00 75 1013.2
20260901061504 57 275 0.0 0.0 0.00 0.00 0.00 76 1013.3
20260901061004 57 275 0.0 0.0 0.00 0.00 0.00 76 1013.1
20260901060504 57 275 0.0 2.0 0.00 0.00 0.00 76 1013.0
20260901060004 56 275 1.0 2.0 0.00 0.00 0.00 76 1013.4
20260901055503 57 275 1.0 2.0 0.00 0.00 0.00 76 1013.4
20260901054504 57 275 1.0 2.0 0.00 0.00 0.00 75 1013.3
20260901054004 57 275 0.0 2.0 0.00 0.00 0.00 73 1013.3
20260901053504 58 275 0.0 1.0 0.00 0.00 0.00 73 1013.4
20260901052004 59 275 0.0 0.0 0.00 0.00 0.00 72 1013.5
20260901051504 59 275 0.0 0.0 0.00 0.00 0.00 71 1013.5
20260901051003 60 275 0.0 0.0 0.00 0.00 0.00 70 1013.5
20260901050504 60 275 0.0 0.0 0.00 0.00 0.00 70 1013.5
20260901050004 60 275 0.0 0.0 0.00 0.00 0.00 70 1013.6
20260901045004 60 275 0.0 0.0 0.00 0.00 0.00 70 1013.4
20260901044506 61 275 0.0 1.0 0.00 0.00 0.00 70 1013.5
20260901044004 61 275 1.0 2.0 0.00 0.00 0.00 69 1013.5
20260901043504 61 275 1.0 2.0 0.00 0.00 0.00 69 1013.4
20260901042504 61 275 1.0 2.0 0.00 0.00 0.00 69 1013.4
20260901042004 61 275 0.0 0.0 0.00 0.00 0.00 69 1013.4
20260901041504 61 275 0.0 0.0 0.00 0.00 0.00 69 1013.4
20260901041003 61 275 0.0 1.0 0.00 0.00 0.00 69 1013.4
20260901040503 61 275 1.0 2.0 0.00 0.00 0.00 67 1013.4
20260901040004 62 275 0.0 2.0 0.00 0.00 0.00 67 1013.2
20260901035504 62 275 1.0 2.0 0.00 0.00 0.00 67 1013.2
20260901035004 62 275 1.0 2.0 0.00 0.00 0.00 65 1013.1
20260901034504 63 275 0.0 2.0 0.00 0.00 0.00 65 1013.1
20260901034005 63 275 0.0 2.0 0.00 0.00 0.00 65 1013.1
20260901033503 63 275 1.0 2.0 0.00 0.00 0.00 64 1013.1
20260901033004 64 275 0.0 2.0 0.00 0.00 0.00 63 1013.1
20260901032504 64 275 1.0 2.0 0.00 0.00 0.00 63 1013.1
20260901032004 64 275 1.0 3.0 0.00 0.00 0.00 62 1012.9
20260901031004 65 274 1.0 3.0 0.00 0.00 0.00 60 1012.9
20260901030504 66 278 2.0 6.0 0.00 0.00 0.00 59 1013.0
20260901030004 67 263 2.0 6.0 0.00 0.00 0.00 57 1012.9
20260901025004 68 277 1.0 2.0 0.00 0.00 0.00 52 1012.9
20260901024503 69 277 2.0 3.0 0.00 0.00 0.00 51 1012.9
20260901024004 70 30 1.0 3.0 0.00 0.00 0.00 49 1012.8
20260901023003 71 35 1.0 2.0 0.00 0.00 0.00 48 1012.8
20260901022504 71 35 0.0 1.0 0.00 0.00 0.00 47 1012.8
20260901022004 72 35 0.0 0.0 0.00 0.00 0.00 47 1012.7
20260901021503 72 35 0.0 1.0 0.00 0.00 0.00 47 1012.7
20260901021004 73 35 0.0 2.0 0.00 0.00 0.00 47 1012.8
20260901020004 73 35 1.0 3.0 0.00 0.00 0.00 45 1012.9
20260901015504 73 178 0.0 3.0 0.00 0.00 0.00 45 1012.8
20260901015007 73 191 0.0 0.0 0.00 0.00 0.00 45 1012.8
20260901014505 73 191 0.0 0.0 0.00 0.00 0.00 45 1012.8
20260901014005 72 191 1.0 2.0 0.00 0.00 0.00 45 1012.9
20260901013005 73 191 2.0 3.0 0.00 0.00 0.00 44 1012.8
20260901012504 74 192 1.0 3.0 0.00 0.00 0.00 43 1013.0
20260901012005 75 190 3.0 6.0 0.00 0.00 0.00 42 1012.7
20260901011505 76 252 2.0 5.0 0.00 0.00 0.00 41 1012.8
20260901011005 76 212 3.0 7.0 0.00 0.00 0.00 41 1012.8
20260901010505 76 294 1.0 3.0 0.00 0.00 0.00 41 1012.9
20260901005004 77 213 4.0 7.0 0.00 0.00 0.00 39 1012.9
20260901004505 77 202 1.0 3.0 0.00 0.00 0.00 40 1013.0
20260901004005 77 286 3.0 7.0 0.00 0.00 0.00 39 1013.0
20260901003505 77 214 3.0 7.0 0.00 0.00 0.00 40 1012.9
20260901003005 77 238 3.0 6.0 0.00 0.00 0.00 39 1012.9
20260901002505 77 287 2.0 6.0 0.00 0.00 0.00 38 1013.0
20260901002004 77 215 2.0 7.0 0.00 0.00 0.00 39 1013.0
20260901001505 77 232 4.0 8.0 0.00 0.00 0.00 38 1012.9
20260901001005 77 191 3.0 6.0 0.00 0.00 0.00 39 1013.1
20260901000505 77 182 4.0 9.0 0.00 0.00 0.00 39 1013.0
20260901000004 77 229 3.0 7.0 0.00 0.00 0.00 38 1013.1
20260831235505 77 238 3.0 7.0 0.00 0.00 0.00 38 1013.1
20260831235004 77 321 3.0 8.0 0.00 0.00 0.00 39 1013.1
20260831234505 77 210 4.0 7.0 0.00 0.00 0.00 39 1013.1
20260831234005 77 248 5.0 10.0 0.00 0.00 0.00 39 1013.2
20260831232505 78 200 3.0 12.0 0.00 0.00 0.00 39 1013.1
20260831232005 78 285 2.0 8.0 0.00 0.00 0.00 37 1013.2
20260831231505 78 296 5.0 12.0 0.00 0.00 0.00 37 1013.2
20260831231005 79 209 4.0 12.0 0.00 0.00 0.00 36 1013.2
20260831230505 80 197 8.0 12.0 0.00 0.00 0.00 34 1013.1
20260831230004 80 229 3.0 10.0 0.00 0.00 0.00 31 1013.1
20260831225504 80 203 8.0 14.0 0.00 0.00 0.00 32 1013.0
20260831225005 79 225 6.0 12.0 0.00 0.00 0.00 32 1013.2
20260831224505 79 182 6.0 12.0 0.00 0.00 0.00 32 1013.1
20260831224004 79 191 7.0 12.0 0.00 0.00 0.00 33 1013.2
20260831223005 80 196 6.0 12.0 0.00 0.00 0.00 32 1013.3
20260831222505 80 202 6.0 12.0 0.00 0.00 0.00 32 1013.3
20260831222004 80 160 6.0 10.0 0.00 0.00 0.00 32 1013.4
20260831221504 79 204 3.0 9.0 0.00 0.00 0.00 35 1013.4
20260831221005 80 208 5.0 12.0 0.00 0.00 0.00 34 1013.5
20260831220505 79 209 2.0 9.0 0.00 0.00 0.00 35 1013.5
20260831220004 79 164 4.0 9.0 0.00 0.00 0.00 36 1013.5
20260831215005 78 176 4.0 10.0 0.00 0.00 0.00 40 1013.6
20260831214504 78 234 5.0 14.0 0.00 0.00 0.00 38 1013.6
20260831214005 78 194 5.0 12.0 0.00 0.00 0.00 40 1013.7
20260831213505 78 221 5.0 12.0 0.00 0.00 0.00 41 1013.8
20260831213005 78 198 7.0 12.0 0.00 0.00 0.00 42 1013.8
20260831212505 78 193 6.0 10.0 0.00 0.00 0.00 41 1013.7
20260831212006 78 229 2.0 12.0 0.00 0.00 0.00 42 1013.8
20260831211505 78 190 4.0 12.0 0.00 0.00 0.00 42 1013.7
20260831211005 78 247 4.0 12.0 0.00 0.00 0.00 43 1013.9
20260831210505 77 254 5.0 10.0 0.00 0.00 0.00 42 1013.9
20260831210005 78 226 6.0 12.0 0.00 0.00 0.00 42 1013.8
20260831205504 78 193 6.0 12.0 0.00 0.00 0.00 43 1013.8
20260831205004 78 193 6.0 12.0 0.00 0.00 0.00 41 1013.7
20260831204504 78 204 6.0 12.0 0.00 0.00 0.00 41 1013.6
20260831204005 79 230 5.0 12.0 0.00 0.00 0.00 41 1013.7
20260831203504 79 273 5.0 12.0 0.00 0.00 0.00 41 1013.7
20260831203005 79 238 2.0 9.0 0.00 0.00 0.00 40 1013.8
20260831202505 78 216 4.0 13.0 0.00 0.00 0.00 40 1013.8
20260831202005 79 203 7.0 15.0 0.00 0.00 0.00 39 1013.7
20260831201505 79 181 6.0 15.0 0.00 0.00 0.00 40 1013.6